Weather History for Provo, UT

Change the Weather History Date:

Tuesday, April 9, 2013

  Actual Average Record
Temperature  
Mean Temperature 34 °F -  
Max Temperature 39 °F 55 °F 75 °F (2012)
Min Temperature 28 °F 33 °F 24 °F (1988)
Degree Days  
Heating Degree Days 32    
Moisture  
Dew Point 21 °F    
Average Humidity 61    
Maximum Humidity 93    
Minimum Humidity 41    
Precipitation  
Precipitation 0.00 in - - ()
Sea Level Pressure  
Sea Level Pressure 29.83 in    
Wind  
Wind Speed 16 mph (NNW)    
Max Wind Speed 28 mph    
Max Gust Speed 34 mph    
Visibility 10 miles    
Events Snow    
Averages and records for this station are not official NWS values.
T = Trace of Precipitation, MM = Missing Value Source: NWS Daily Summary

Daily Weather History Graph

Daily Weather History Graph

Search for Another Location

Airport:

Trip Planner

Search our weather history database for the weather conditions in past years. The results will help you decide how hot, cold, wet, or windy it might be!

Date:

Astronomy

Apr. 09, 2013 Rise Set
Actual Time 6:57 AM MDT 7:59 PM MDT
Civil Twilight 6:29 AM MDT 8:27 PM MDT
Nautical Twilight 5:56 AM MDT 9:00 PM MDT
Astronomical Twilight 5:22 AM MDT 9:35 PM MDT
Moon 6:22 AM MDT (4/9) 7:39 PM MDT (4/9)
Length of Visible Light 13h 57m
Length of Day
13h 02m
Waning Crescent, 0% of the Moon is Illuminated
Apr 9
Waning Crescent
Apr 10
New
Apr 18
First Quarter
Apr 25
Full
May 2
Last Quarter

Hourly Weather History & Observations

Time (MDT) Temp. Windchill Dew Point Humidity Pressure Visibility Wind Dir Wind Speed Gust Speed Precip Events Conditions
12:15 AM 37.4 °F 26.4 °F 26.6 °F 65% 29.53 in 10.0 mi NW 23.0 mph 28.8 mph N/A   Mostly Cloudy
12:35 AM 37.4 °F 25.4 °F 28.4 °F 70% 29.55 in 10.0 mi NW 27.6 mph 34.5 mph N/A   Mostly Cloudy
12:55 AM 35.6 °F 23.4 °F 26.6 °F 70% 29.56 in 10.0 mi NW 25.3 mph 31.1 mph N/A   Mostly Cloudy
1:15 AM 35.6 °F 26.2 °F 24.8 °F 65% 29.57 in 10.0 mi NNW 15.0 mph 24.2 mph N/A   Overcast
1:35 AM 35.6 °F 24.5 °F 24.8 °F 65% 29.58 in 10.0 mi NW 20.7 mph 26.5 mph N/A   Mostly Cloudy
1:55 AM 35.6 °F 24.5 °F 21.2 °F 56% 29.60 in 10.0 mi NNW 20.7 mph 24.2 mph N/A   Overcast
2:15 AM 33.8 °F 24.8 °F 21.2 °F 60% 29.62 in 6.0 mi NNW 12.7 mph - N/A   Overcast
2:35 AM 33.8 °F 23.9 °F 21.2 °F 60% 29.62 in 10.0 mi NW 15.0 mph - N/A   Overcast
2:55 AM 33.8 °F 28.6 °F 26.6 °F 75% 29.63 in 10.0 mi East 5.8 mph - N/A   Overcast
3:15 AM 33.8 °F - 26.6 °F 75% 29.64 in 10.0 mi Calm Calm - N/A   Overcast
3:35 AM 33.8 °F 25.8 °F 26.6 °F 75% 29.65 in 10.0 mi NNW 10.4 mph - N/A   Overcast
3:55 AM 33.8 °F 24.8 °F 19.4 °F 56% 29.67 in 10.0 mi NNW 12.7 mph 16.1 mph N/A   Overcast
4:15 AM 32.0 °F 21.6 °F 19.4 °F 60% 29.68 in 10.0 mi NNW 15.0 mph - N/A   Overcast
4:35 AM 32.0 °F 21.2 °F 19.4 °F 60% 29.69 in 10.0 mi NNW 16.1 mph - N/A   Overcast
4:55 AM 30.2 °F 18.9 °F 21.2 °F 69% 29.71 in 10.0 mi NNW 16.1 mph 20.7 mph N/A   Overcast
5:15 AM 28.4 °F 17.0 °F 19.4 °F 69% 29.72 in 6.0 mi NNW 15.0 mph 25.3 mph N/A   Overcast
5:35 AM 28.4 °F 19.7 °F 21.2 °F 74% 29.73 in 5.0 mi NNW 9.2 mph - N/A   Overcast
5:55 AM 28.4 °F 19.1 °F 19.4 °F 69% 29.74 in 4.0 mi North 10.4 mph - N/A   Overcast
6:15 AM 28.4 °F 17.5 °F 21.2 °F 74% 29.76 in 2.5 mi NNW 13.8 mph - N/A   Overcast
6:35 AM 28.4 °F 17.5 °F 21.2 °F 74% 29.77 in 7.0 mi North 13.8 mph - N/A   Mostly Cloudy
6:55 AM 28.4 °F 19.7 °F 19.4 °F 69% 29.78 in 10.0 mi NNW 9.2 mph - N/A   Partly Cloudy
6:56 AM 28.4 °F 17.5 °F 19.4 °F 69% 29.78 in 5.0 mi NW 13.8 mph 19.6 mph N/A Snow Light Snow
7:53 AM 28.4 °F 19.7 °F 26.6 °F 93% 29.81 in 4.0 mi North 9.2 mph - N/A Snow Light Snow
8:29 AM 28.4 °F 23.3 °F 24.8 °F 86% 29.83 in 1.0 mi East 4.6 mph - N/A Snow Light Snow
8:55 AM 28.4 °F 23.3 °F 24.8 °F 86% 29.84 in 6.0 mi North 4.6 mph - N/A Snow Light Snow
9:50 AM 30.2 °F 22.6 °F 19.4 °F 64% 29.87 in 10.0 mi NNW 8.1 mph - N/A   Mostly Cloudy
10:53 AM 33.8 °F 25.8 °F 19.4 °F 56% 29.90 in 10.0 mi North 10.4 mph - N/A   Mostly Cloudy
11:53 AM 32.0 °F 25.6 °F 21.2 °F 64% 29.92 in 10.0 mi NE 6.9 mph - N/A   Overcast
12:56 PM 33.8 °F 28.6 °F 17.6 °F 52% 29.93 in 10.0 mi West 5.8 mph - N/A   Mostly Cloudy
2:50 PM 37.4 °F 32.8 °F 19.4 °F 48% 29.94 in 15.0 mi Variable 5.8 mph - N/A   Mostly Cloudy
3:50 PM 37.4 °F 34.9 °F 19.4 °F 48% 29.95 in 15.0 mi Variable 3.5 mph - N/A   Mostly Cloudy
4:50 PM 39.2 °F 29.3 °F 17.6 °F 42% 29.96 in 15.0 mi NW 20.7 mph 27.6 mph N/A   Mostly Cloudy
6:50 PM 39.2 °F 35.0 °F 17.6 °F 42% 30.00 in 15.0 mi Variable 5.8 mph - N/A   Scattered Clouds
7:50 PM 37.4 °F 26.9 °F 15.8 °F 41% 30.01 in 15.0 mi NW 20.7 mph - N/A   Scattered Clouds
8:50 PM 35.6 °F 25.2 °F 17.6 °F 48% 30.04 in 15.0 mi NW 18.4 mph - N/A   Scattered Clouds
9:15 PM 35.6 °F 25.5 °F 17.6 °F 48% 30.05 in 10.0 mi NW 17.3 mph 21.9 mph N/A   Clear
9:35 PM 35.6 °F 25.5 °F 17.6 °F 48% 30.07 in 10.0 mi NW 17.3 mph - N/A   Clear
9:55 PM 35.6 °F 25.9 °F 19.4 °F 52% 30.08 in 10.0 mi NW 16.1 mph 21.9 mph N/A   Partly Cloudy
10:15 PM 35.6 °F 24.8 °F 19.4 °F 52% 30.09 in 10.0 mi NW 19.6 mph - N/A   Partly Cloudy
10:35 PM 35.6 °F 25.5 °F 17.6 °F 48% 30.09 in 10.0 mi NW 17.3 mph 20.7 mph N/A   Scattered Clouds
10:55 PM 33.8 °F 21.6 °F 19.4 °F 56% 30.11 in 10.0 mi NW 23.0 mph - N/A   Mostly Cloudy
11:15 PM 33.8 °F 22.5 °F 17.6 °F 52% 30.11 in 10.0 mi NW 19.6 mph 23.0 mph N/A   Mostly Cloudy
11:35 PM 35.6 °F 25.5 °F 19.4 °F 52% 30.11 in 10.0 mi NW 17.3 mph 21.9 mph N/A   Mostly Cloudy
11:55 PM 35.6 °F 25.2 °F 17.6 °F 48% 30.12 in 10.0 mi NW 18.4 mph - N/A   Mostly Cloudy